Date,TemperatureHighF,TemperatureAvgF,TemperatureLowF,DewpointHighF,DewpointAvgF,DewpointLowF,HumidityHigh,HumidityAvg,HumidityLow,PressureMaxIn,PressureMinIn,WindSpeedMaxMPH,WindSpeedAvgMPH,GustSpeedMaxMPH,PrecipitationSumIn
2013-1-1,47,41,37,46,38,34,99,88,70,30.02,29.48,0,0,0,0.04
2013-1-2,50,42,36,50,41,34,100,97,90,30.26,30.02,0,0,0,0.02
2013-1-3,51,50,50,49,48,47,94,92,90,30.59,30.56,0,0,0,0.00
2013-1-4,50,49,49,47,46,46,91,88,88,30.62,30.57,0,0,0,0.00
2013-1-5,50,47,0,48,45,0,96,90,90,30.55,30.48,0,0,0,0.00
2013-1-6,47,46,44,47,45,44,100,99,95,30.47,30.37,0,0,0,0.01
2013-1-7,46,45,44,46,45,44,100,99,95,30.30,30.23,0,0,0,0.01
2013-1-8,50,49,48,48,48,48,100,98,93,30.19,30.15,0,0,0,0.07
2013-1-9,49,43,31,49,42,30,100,95,82,30.15,30.04,0,0,0,0.12
2013-1-10,40,37,31,40,37,30,100,99,94,30.04,29.89,0,0,0,0.00
2013-1-11,43,38,34,41,37,32,100,95,84,30.05,29.93,0,0,0,0.00
2013-1-12,38,37,34,38,35,31,100,92,74,29.93,29.79,0,0,0,0.18
2013-1-13,38,35,31,35,29,26,91,81,69,30.12,29.91,0,0,0,0.00
2013-1-14,36,33,31,36,32,27,100,95,85,30.07,29.62,0,0,0,0.36
2013-1-15,37,33,26,33,30,25,95,87,77,29.84,29.61,0,0,1,0.01
2013-1-16,34,28,25,31,27,23,100,95,86,29.99,29.79,6,1,9,0.00
2013-1-17,34,30,25,30,28,24,99,91,77,30.04,29.84,3,0,5,0.01
2013-1-18,34,31,28,28,27,25,96,88,75,29.84,29.38,11,2,11,0.00
2013-1-19,32,30,29,32,29,26,100,95,84,29.45,29.35,11,3,18,0.00
2013-1-20,31,30,28,30,28,25,98,93,83,29.42,29.25,13,2,17,0.00
2013-1-21,34,30,25,30,28,24,99,93,79,29.47,29.22,4,0,5,0.07
2013-1-22,35,30,24,35,29,22,100,98,93,29.63,29.45,14,3,14,0.01
2013-1-23,35,34,33,32,31,30,95,91,87,29.76,29.63,11,3,16,0.20
2013-1-24,35,33,31,31,30,28,91,87,82,30.11,29.76,6,1,7,0.05
2013-1-25,37,34,31,36,29,26,96,84,75,30.09,29.51,13,1,14,0.14
2013-1-26,46,41,35,43,39,35,100,92,75,29.80,29.50,7,1,19,0.23
2013-1-27,50,45,38,50,40,34,100,85,58,29.60,29.25,12,1,15,0.30
2013-1-28,50,42,36,49,39,34,100,89,79,29.79,29.50,6,0,12,0.17
2013-1-29,55,54,49,54,53,49,100,98,92,29.61,29.53,0,0,0,0.07
2013-1-30,54,49,44,54,43,36,100,81,57,30.03,29.49,0,0,0,0.24
2013-1-31,50,47,44,46,40,37,96,77,63,30.02,29.78,0,0,0,0.08
2013-2-1,46,42,38,42,39,36,100,92,80,29.83,29.43,0,0,0,0.28
2013-2-2,42,38,28,38,31,24,94,76,59,30.23,29.57,0,0,0,0.01
2013-2-3,48,40,27,46,37,24,94,89,78,30.23,29.89,0,0,0,0.00
2013-2-4,50,47,42,47,39,32,93,76,53,29.93,29.69,0,0,0,0.00
2013-2-5,43,40,35,37,32,25,90,74,53,29.70,29.33,0,0,0,0.03
2013-2-6,43,39,35,38,32,26,92,75,63,30.05,29.35,0,0,0,0.09
2013-2-7,41,36,29,35,30,25,94,80,67,30.09,29.96,0,0,0,0.01
2013-2-8,42,37,31,36,33,30,100,86,68,30.12,29.99,0,0,0,0.00
2013-2-9,38,36,33,38,35,31,100,97,88,30.13,29.82,0,0,0,0.11
2013-2-10,41,38,34,41,38,34,100,100,100,29.82,29.20,0,0,0,0.81
2013-2-11,34,33,32,34,33,32,100,100,100,29.74,29.23,0,0,0,0.21
2013-2-12,35,34,33,33,30,28,100,88,81,30.10,29.73,0,0,0,0.00
2013-2-13,40,34,32,40,30,26,100,85,68,30.15,29.93,0,0,0,0.04
2013-2-14,51,45,38,47,42,36,100,89,64,29.96,29.70,0,0,0,0.12
2013-2-15,48,39,31,41,34,30,100,86,58,30.17,29.96,0,0,0,0.00
2013-2-16,48,41,33,41,37,31,98,85,58,30.21,30.16,0,0,0,0.00
2013-2-17,51,38,29,42,32,28,100,84,46,30.17,30.05,0,0,0,0.00
2013-2-18,48,37,31,39,33,29,100,86,56,30.11,30.05,0,0,0,0.01
2013-2-19,51,36,26,39,31,25,100,83,45,30.09,30.01,0,0,0,0.00
2013-2-20,42,36,31,38,32,25,100,84,63,30.21,30.05,0,0,0,0.01
2013-2-21,36,33,29,26,22,19,75,64,55,30.21,30.12,0,0,0,0.00
2013-2-22,35,33,32,25,22,20,77,64,58,30.12,30.06,0,0,0,0.00
2013-2-23,36,33,30,28,25,20,86,72,59,30.17,30.05,0,0,0,0.00
2013-2-24,35,33,31,28,27,24,87,77,67,30.25,30.15,0,0,0,0.00
2013-2-25,38,36,33,35,32,26,89,85,74,30.34,30.21,0,0,0,0.00
2013-2-26,40,38,36,40,37,34,100,97,88,30.52,30.33,0,0,0,0.04
2013-2-27,41,37,35,38,34,31,100,89,71,30.52,30.43,0,0,0,0.00
2013-2-28,46,39,32,36,34,30,94,82,67,30.44,30.29,0,0,0,0.00
2013-3-1,41,37,36,38,32,29,100,83,66,30.36,30.31,0,0,0,0.03
2013-3-2,39,35,27,31,29,25,91,77,69,30.36,30.25,0,0,0,0.00
2013-3-3,44,34,25,36,30,23,98,87,70,30.25,30.06,0,0,0,0.00
2013-3-4,50,39,31,36,34,31,100,82,58,30.05,29.69,0,0,0,0.01
2013-3-5,38,38,38,34,34,34,86,86,86,29.69,29.56,0,0,0,0.00
2013-3-6,52,48,45,43,41,40,83,78,70,29.51,29.45,0,0,0,0.00
2013-3-7,49,47,0,49,47,0,100,97,100,29.34,29.32,0,0,0,0.05
2013-3-8,0,0,0,0,0,0,0,0,100,29.46,29.46,0,0,0,0.00
2013-3-9,47,12,0,47,12,0,100,25,100,29.57,29.56,0,0,0,0.00
2013-4-12,44,44,44,42,42,42,96,96,96,29.75,29.40,0,0,0,0.00
2013-4-18,58,36,0,45,29,0,89,48,54,30.06,29.78,0,0,0,0.10
2013-4-19,52,52,52,44,39,36,73,61,53,30.46,30.06,0,0,0,0.00
2013-4-20,54,50,34,36,33,25,80,54,34,30.49,30.31,0,0,0,0.00
2013-4-21,54,54,54,33,33,33,45,45,45,30.01,30.01,0,0,0,0.00
2013-4-22,57,49,40,49,43,38,99,80,53,30.00,29.93,0,0,0,0.00
2013-4-23,67,58,49,49,46,44,86,67,50,30.18,30.09,0,0,0,0.00
2013-4-24,66,51,44,54,48,32,97,87,63,30.23,30.15,0,0,0,0.00
2013-4-25,70,61,49,55,51,48,100,74,50,30.23,30.01,0,0,0,0.00
2013-4-26,69,57,0,51,43,0,54,45,54,30.00,29.89,0,0,0,0.00
2013-4-30,0,0,0,0,0,0,0,0,100,30.26,30.14,0,0,0,0.00
2013-5-1,0,0,0,0,0,0,0,0,100,30.26,30.12,0,0,0,0.00
2013-5-2,0,0,0,0,0,0,0,0,100,30.18,30.11,0,0,0,0.00
2013-5-3,67,43,0,44,32,0,90,56,33,30.15,30.02,0,0,0,0.00
2013-5-4,61,53,46,49,41,33,86,67,40,30.10,29.95,0,0,0,0.01
2013-5-5,64,55,42,50,46,38,89,72,55,30.16,30.10,0,0,0,0.00
2013-5-6,70,63,46,49,46,43,91,55,42,30.14,30.01,9,1,9,0.00
2013-6-3,67,56,42,50,42,39,99,64,37,30.44,30.36,0,0,0,0.00
2013-6-4,69,57,43,48,42,38,88,60,35,30.39,30.17,0,0,0,0.00
2013-6-5,69,57,47,49,45,43,90,67,44,30.18,30.04,0,0,0,0.00
2013-6-6,71,59,47,52,48,44,89,67,48,30.14,30.08,0,0,0,0.00
2013-6-7,68,58,50,54,47,43,85,68,50,30.19,30.12,0,0,0,0.04
2013-6-8,64,56,47,46,45,43,87,67,51,30.17,30.03,0,0,0,0.00
2013-6-9,59,56,50,46,45,43,81,67,60,30.03,29.92,0,0,7,0.00
2013-6-10,55,55,55,44,44,44,66,66,66,29.95,29.93,0,0,0,0.00
2013-7-5,76,62,56,53,49,47,72,63,45,30.39,30.23,0,0,0,0.00
2013-7-6,76,76,76,53,53,53,45,45,45,30.39,30.32,0,0,0,0.00
2013-7-7,83,78,76,53,52,51,45,41,33,30.48,30.38,0,0,0,0.00
2013-7-8,82,82,82,52,52,52,35,35,35,30.49,30.39,0,0,0,0.00
2013-7-9,82,80,62,52,49,39,64,35,23,30.41,30.23,0,0,0,0.00
2013-7-10,75,64,52,57,52,45,85,64,49,30.25,30.21,0,0,0,0.00
2013-7-11,72,60,51,51,47,44,84,63,41,30.26,30.18,0,0,0,0.00
2013-7-12,75,64,52,59,53,48,93,70,47,30.26,30.18,0,0,0,0.00
2013-7-13,87,72,56,65,59,55,100,69,37,30.22,30.17,0,0,0,0.00
2013-7-14,85,73,62,64,59,54,91,63,38,30.22,30.14,0,0,0,0.00
2013-7-15,86,70,60,58,53,42,81,59,24,30.20,30.15,0,0,0,0.00
2013-7-16,85,72,60,61,56,52,88,60,35,30.19,30.14,0,0,0,0.00
2013-7-17,85,72,58,63,58,53,87,61,38,30.24,30.17,0,0,0,0.00
2013-7-18,84,76,61,59,55,52,85,51,36,30.28,30.22,0,0,0,0.00
2013-7-19,82,70,55,59,54,50,91,60,36,30.27,30.16,0,0,0,0.00
2013-7-20,74,70,60,61,58,56,98,67,58,30.21,30.11,0,0,0,0.00
2013-7-21,79,71,61,61,59,53,84,66,50,30.13,29.99,0,0,0,0.00
2013-7-22,88,74,63,66,62,57,97,68,37,30.04,29.92,0,0,0,0.00
2013-7-23,82,71,63,72,62,57,98,76,51,29.93,29.86,0,0,0,0.11
2013-7-24,77,64,58,62,58,56,100,82,50,29.95,29.90,0,0,0,0.00
2013-7-25,74,67,60,68,61,55,100,82,55,29.91,29.85,0,0,0,0.15
2013-7-26,76,66,53,60,55,49,100,72,45,29.90,29.83,0,0,0,0.00
2013-7-27,81,64,52,63,55,45,100,77,35,29.84,29.57,0,0,0,0.21
2013-7-28,73,63,57,62,58,54,100,86,55,29.74,29.58,0,0,0,0.17
2013-7-29,71,64,59,62,59,55,100,87,58,29.95,29.74,0,0,0,0.42
2013-7-30,66,61,58,66,60,58,100,97,83,29.95,29.83,0,0,0,0.04
2013-7-31,66,61,0,63,60,0,100,93,83,29.98,29.92,0,0,0,0.00
2013-8-1,87,52,0,66,39,0,66,33,42,29.92,29.65,0,0,0,0.00
2013-8-2,74,67,62,63,59,54,100,77,50,29.80,29.71,0,0,0,0.03
2013-8-3,62,59,58,62,59,58,100,100,100,29.86,29.78,0,0,0,0.04
2013-8-4,70,63,58,59,57,55,100,84,58,30.07,30.00,0,0,0,0.00
2013-8-5,63,63,63,57,57,57,80,80,80,30.00,29.75,0,0,0,0.00
2013-8-6,63,63,63,57,57,57,80,80,80,30.01,29.90,0,0,0,0.00
2013-8-7,63,63,63,57,57,57,80,80,80,30.00,29.87,0,0,0,0.00
2013-8-8,72,59,53,57,51,49,85,76,53,30.09,30.01,0,0,0,0.00
2013-8-9,72,72,72,54,54,54,54,54,54,30.15,30.00,0,0,0,0.00
2013-8-10,72,71,68,54,53,49,54,53,50,30.17,30.13,0,0,0,0.00
2013-8-14,59,59,59,52,52,52,77,77,77,30.18,30.12,0,0,0,0.00
2013-8-15,59,59,59,52,52,52,77,77,77,30.12,29.98,0,0,0,0.00
2013-8-16,59,59,59,52,52,52,77,77,77,29.99,29.91,0,0,0,0.00
2013-8-17,59,59,59,52,52,52,77,77,77,29.97,29.71,0,0,0,0.00
2013-8-18,59,59,59,52,52,52,77,77,77,29.88,29.70,0,0,0,0.00
2013-8-19,71,61,51,53,50,48,94,69,47,30.28,29.89,0,0,0,0.02
2013-8-20,72,65,49,56,51,48,100,63,44,30.33,30.26,0,0,0,0.00
2013-8-21,76,64,50,59,53,50,100,71,42,30.27,30.12,0,0,0,0.02
2013-8-22,73,65,60,69,62,60,100,92,73,30.13,30.01,0,0,0,0.41
2013-8-23,77,64,58,67,61,56,100,90,50,30.01,29.83,0,0,0,0.00
2013-8-24,65,62,60,63,60,54,100,93,80,29.85,29.79,0,0,0,0.17
2013-8-25,72,60,54,64,56,49,100,88,65,29.89,29.81,0,0,0,0.04
2013-8-26,76,65,58,62,57,51,100,78,47,30.06,30.00,0,0,0,0.00
2013-8-27,72,60,49,57,50,46,100,75,43,30.09,30.02,0,0,0,0.00
2013-8-28,73,60,48,55,51,48,100,77,42,30.19,30.09,0,0,0,0.00
2013-8-29,73,64,53,58,56,53,100,75,50,30.17,30.10,0,0,0,0.00
2013-8-30,74,65,57,60,58,55,100,80,56,30.12,30.02,0,0,0,0.00
2013-8-31,68,61,53,61,48,39,100,66,37,30.37,30.10,0,0,0,0.00
2013-9-1,68,57,45,51,46,41,90,68,46,30.41,30.31,0,0,0,0.00
2013-9-2,76,66,50,58,56,50,100,72,52,30.32,30.26,0,0,0,0.00
2013-9-3,75,63,52,62,58,52,100,86,59,30.32,30.24,0,0,0,0.00
2013-9-4,80,64,51,63,54,43,100,76,29,30.24,29.97,0,0,0,0.00
2013-9-5,80,62,51,62,52,44,100,75,34,29.97,29.74,0,0,0,0.00
2013-9-6,61,58,54,58,53,48,100,85,65,29.81,29.68,0,0,0,0.03
2013-9-7,62,54,48,57,50,46,100,87,60,30.01,29.80,0,0,0,0.16
2013-9-8,59,52,44,54,49,44,100,90,60,30.03,30.00,0,0,0,0.13
2013-9-9,52,48,45,52,48,45,100,100,100,30.02,29.95,0,0,0,0.03
2013-9-10,56,56,56,56,56,56,100,100,100,30.13,30.03,0,0,0,0.00
2013-9-11,56,56,56,56,56,56,100,100,100,30.15,30.08,0,0,0,0.00
2013-11-9,0,0,0,0,0,0,0,0,100,29.62,29.59,0,0,0,2.54
2013-11-10,0,0,0,0,0,0,0,0,100,30.22,29.57,0,0,0,0.00
2013-11-11,0,0,0,0,0,0,0,0,100,30.21,30.09,0,0,0,0.00
2013-11-12,0,0,0,0,0,0,0,0,100,30.48,30.11,0,0,0,0.00
2013-11-13,0,0,0,0,0,0,0,0,100,30.51,30.30,0,0,0,0.00
2013-11-23,64,64,63,40,40,39,42,41,40,30.11,29.93,0,0,0,0.00
2013-11-24,63,63,63,41,40,39,44,42,41,30.35,30.10,0,0,0,0.00
2013-11-25,67,64,63,42,41,40,43,42,40,30.49,30.36,0,0,0,0.00
2013-11-26,71,68,67,44,42,40,40,38,37,30.51,30.41,0,0,0,0.00
2013-11-27,71,69,68,47,44,41,44,40,37,30.40,30.29,0,0,0,0.00
2013-11-28,72,70,69,48,48,46,45,44,44,30.38,29.87,0,0,0,0.00
2013-11-29,72,52,43,48,40,35,80,66,44,30.02,29.67,0,0,0,0.00
2013-11-30,46,42,34,38,36,31,92,80,73,30.00,29.74,0,0,0,0.00
2013-12-1,48,40,31,44,38,30,100,95,80,30.09,29.98,0,0,0,0.00
2013-12-2,48,45,39,45,42,36,100,91,74,30.09,29.98,0,0,0,0.00
2013-12-3,42,41,40,40,37,34,96,84,75,29.98,29.86,0,0,0,0.00
2013-12-4,46,40,29,46,36,29,100,86,67,30.04,29.84,0,0,0,0.00
2013-12-5,50,40,28,45,35,28,100,83,59,30.02,29.58,0,0,0,0.01
2013-12-6,46,39,31,42,34,28,100,82,70,29.92,29.79,0,0,0,0.00
2013-12-7,48,44,41,47,44,41,100,99,92,29.90,29.81,0,0,0,0.01
2013-12-8,51,44,36,48,44,36,100,98,89,29.86,29.78,0,0,0,0.00
2013-12-9,51,42,35,50,42,35,100,99,89,29.94,29.86,0,0,0,0.00
2013-12-10,47,38,30,47,38,30,100,100,98,29.99,29.93,0,0,0,0.00
2013-12-11,43,35,31,43,35,31,100,100,100,29.97,29.83,0,0,0,0.01
2013-12-12,48,42,32,48,42,32,100,100,100,29.83,29.73,0,0,0,0.01
2013-12-13,53,50,44,51,48,43,100,95,75,29.73,29.56,0,0,0,0.05
2013-12-14,52,45,34,50,44,34,100,97,88,29.83,29.60,0,0,0,0.02
2013-12-15,53,51,41,53,51,41,100,100,100,29.70,29.54,0,0,0,0.15
2013-12-16,54,51,44,54,51,44,100,100,100,29.66,29.49,0,0,0,0.32
2013-12-17,44,41,39,44,41,39,100,100,100,29.80,29.52,0,0,0,0.21
2013-12-18,49,46,39,49,45,39,100,100,96,29.52,28.85,0,0,0,0.29
2013-12-19,48,42,35,48,39,35,100,90,66,29.41,28.87,0,0,0,0.13
2013-12-20,50,43,35,46,40,35,100,87,74,29.71,29.41,0,0,0,0.00
2013-12-21,52,50,47,52,49,39,100,95,75,29.59,29.27,0,0,0,0.19
2013-12-22,49,46,42,44,40,36,89,79,66,29.42,29.27,0,0,0,0.01
2013-12-23,52,51,50,52,51,49,100,99,97,28.82,28.42,0,0,0,0.51
2013-12-24,52,46,40,52,43,37,100,90,81,28.53,28.34,0,0,0,0.43
2013-12-25,42,39,36,42,38,36,100,97,85,28.71,28.48,0,0,0,0.12
2013-12-26,44,39,32,44,39,32,100,100,93,29.04,28.71,0,0,0,0.01
2013-12-27,51,47,43,51,40,36,100,78,68,28.81,28.56,0,0,0,0.09
2013-12-28,46,40,29,38,35,29,100,83,72,29.26,28.81,0,0,0,0.00
2013-12-29,46,35,28,42,34,28,100,94,75,29.62,29.26,0,0,0,0.01
2013-12-30,49,45,40,49,43,40,100,93,82,29.53,29.21,0,0,0,0.31
2013-12-31,50,48,44,49,47,43,100,96,86,29.39,29.09,0,0,0,0.09
2014-1-1,50,48,42,50,47,42,100,98,90,29.12,28.59,0,0,0,0.57
2014-1-2,50,46,42,49,44,42,100,92,76,28.99,28.61,0,0,0,0.11